Location: Pilipovskiye Korichintsy
(49.1833°N, 27.4667°E)
Time: 11:18:38
(UTC+00:00)

IRS-1D - Pass Details

Date: 14 July 2020
Orbit: 739 x 817 km, 98.6° (Epoch: 07 August)

Event Time Altitude Azimuth Distance (km) Brightness Sun altitude
Rises 00:37:30 0° 14° (NNE) 3,199 8.2 -12.5°
Reaches altitude 10° 00:39:48 10° 14° (NNE) 2,266 7.2 -12.3°
Maximum altitude 00:44:47 87° 286° (WNW) 748 3.4 -11.8°
Enters shadow 00:49:01 14° 198° (SSW) 1,972 5.0 -11.4°
